Simultaneous Nadir Overpasses (SNOs) Predictions

Prediction of SNOs between LANDSAT-8 and METOP-A Satellite Orbit:

Table of predicted SNOs for the next 14.0 days since TLE Epoch: 8/11/2016
Index Date (LANDSAT-8) Time (LANDSAT-8) Lat,Lon (LANDSAT-8) SZA (LANDSAT-8 ) Date (METOP-A) Time (METOP-A) Lat,Lon (METOP-A) SZA (METOP-A ) Distance(km) Time Diff (sec)
1 08/12/2016 12:09:31 81.17, 38.41 68.50 08/12/2016 12:08:23 81.18, 38.54 68.49 2.27 68
2 08/12/2016 12:58:57 -81.19,-153.62 111.45 08/12/2016 12:59:03 -81.19,-153.63 111.45 0.09 6
3 08/15/2016 07:43:47 81.18, 105.02 69.40 08/15/2016 07:42:44 81.18, 104.96 69.37 1.24 63
4 08/15/2016 08:33:13 -81.20, -86.98 110.54 08/15/2016 08:33:23 -81.20, -86.82 110.52 2.84 10
5 08/18/2016 03:18:04 81.17, 171.21 70.28 08/18/2016 03:17:05 81.18, 171.36 70.27 2.67 59
6 08/18/2016 04:07:30 -81.19, -20.76 109.66 08/18/2016 04:07:45 -81.19, -20.79 109.66 0.47 15
7 08/20/2016 22:52:19 81.17,-122.27 71.23 08/20/2016 22:51:25 81.18,-122.25 71.21 0.37 54
8 08/20/2016 23:41:45 -81.20, 45.79 108.71 08/20/2016 23:42:05 -81.19, 45.61 108.72 3.20 20
9 08/23/2016 18:26:35 81.18, -55.79 72.20 08/23/2016 18:25:46 81.17, -55.88 72.17 1.56 49




NCC Satellite Simultaneous Nadir Overpasses (SNOs) Prediction Service
